Dewpoint
50 50 50 49 49 48 48 48 48 50 50 51 50 50 51 51 49 47 47 48 48 48 47 48 48 49 50 51 49 48 50 43 40 37 38 38 41 46 48 51 53 56 57 54 50 43 31 31 27 27 24 23 18 16 14 20 21 19 17 16 15 11 7 7 6 6 6 4 4 6 6 4 3 8 9 48 51 54 61 62 63 63 63 63 63 63 64 64
50 50 50 49 48 48 48 48 49 49 50 50 50 50 50 50 50 50 47 48 49 48 49 48 49 48 49 50 50 49 46 40 35 36 38 42 46 48 51 54 54 53 56 53 48 41 32 30 26 24 24 23 24 17 20 16 22 14 20 17 10 12 8 9 8 8 5 4 6 9 9 5 4 9 10 10 15 56 56 60 61 61 62 63 63 63 64 64
50 50 49 49 49 48 49 49 49 49 50 50 50 50 50 49 49 50 48 47 47 49 49 49 48 47 48 49 50 49 42 36 35 30 32 51 52 54 51 48 49 54 56 52 48 39 33 29 26 24 24 21 19 14 18 13 21 18 17 14 12 14 12 12 10 8 7 8 8 9 9 9 8 9 12 8 14 53 46 58 61 60 61 62 62 63 63 64
49 49 49 48 49 48 48 49 49 49 49 50 49 49 50 49 49 49 48 49 49 49 49 48 48 47 48 49 50 45 38 36 17 21 40 51 47 48 49 48 49 54 57 52 43 38 37 34 29 25 23 20 20 22 14 18 17 19 15 11 12 15 14 14 13 10 9 9 12 11 12 10 10 10 9 11 14 35 43 56 57 62 61 62 62 63 63 63
49 49 49 49 49 49 49 50 49 49 50 50 49 49 49 49 49 49 49 49 49 49 48 48 48 46 47 49 49 41 38 15 11 43 45 48 47 48 49 46 48 52 57 50 42 41 37 35 32 24 23 20 20 20 16 17 19 21 15 15 16 16 14 16 15 14 12 14 11 12 10 10 12 10 9 11 8 7 13 38 58 62 61 62 62 63 63 63
49 49 50 50 50 50 49 49 49 49 49 49 49 49 49 49 49 49 49 49 48 49 48 48 47 47 47 49 46 39 30 -6 31 37 46 47 47 48 48 44 46 49 50 47 38 38 32 30 27 22 23 20 19 17 20 15 22 13 20 19 18 16 12 16 17 16 13 12 11 12 13 13 12 12 15 11 9 11 19 23 54 62 62 62 62 63 62 62
49 49 49 49 49 49 50 49 49 49 49 49 49 49 49 49 49 49 49 48 48 48 49 48 47 46 48 48 42 38 28 23 31 28 42 46 47 46 47 40 40 40 47 45 38 32 31 27 23 20 22 20 20 17 20 18 23 17 13 21 19 16 15 17 16 16 14 14 14 13 14 11 12 10 13 11 12 12 34 50 54 62 62 62 62 62 62 62
48 49 49 49 49 49 49 49 49 49 49 49 49 49 48 49 49 49 48 48 47 47 48 47 46 45 47 43 38 34 34 32 33 34 40 46 40 39 40 29 32 32 45 41 36 30 31 23 22 20 20 16 18 18 20 18 21 17 15 21 21 19 18 17 17 18 14 14 14 13 12 13 12 12 14 13 15 16 61 58 62 62 62 62 62 62 62 62
49 49 49 49 48 49 49 49 49 49 49 49 48 48 49 48 48 48 48 48 48 47 48 48 48 45 46 43 38 34 28 31 32 38 38 36 36 35 34 29 32 31 31 35 35 32 30 24 22 20 18 18 19 17 21 16 15 20 18 21 21 20 21 21 20 20 19 18 16 15 14 13 14 16 14 15 33 57 63 62 62 62 61 61 62 62 62 62
49 49 49 49 49 48 49 49 49 49 49 48 47 48 48 47 47 47 48 46 47 48 49 48 47 45 40 39 34 30 29 31 34 38 38 37 36 36 34 32 33 32 25 29 34 31 28 25 23 21 19 19 19 17 19 16 12 20 20 20 20 21 21 17 18 18 17 17 17 16 16 15 16 15 12 48 51 63 62 62 62 62 61 61 62 62 63 62
49 49 49 49 49 49 49 49 49 49 48 47 47 47 48 48 47 46 46 45 46 48 48 47 47 45 41 38 34 29 34 34 37 38 38 37 36 35 34 35 34 31 31 31 33 34 29 28 23 20 18 16 18 17 18 18 18 20 19 20 20 20 20 18 16 18 14 15 18 16 15 15 15 14 13 45 62 62 61 61 61 61 61 61 62 62 62 63
48 49 49 49 49 49 49 49 49 48 47 47 47 47 48 48 46 46 45 46 46 47 47 47 47 44 40 38 35 32 37 38 38 37 37 38 36 36 37 36 35 33 31 22 26 32 33 33 30 24 17 18 16 17 17 18 16 16 19 17 18 19 18 19 19 18 16 17 16 16 14 13 13 13 14 51 62 62 60 60 61 61 61 61 62 62 62 62
49 49 48 49 49 49 49 49 49 49 48 48 47 47 47 46 46 46 46 46 46 46 46 46 46 44 41 34 34 36 36 35 35 37 37 37 37 37 37 36 35 34 34 29 27 34 33 32 30 26 24 17 16 12 16 17 15 13 15 13 13 15 15 17 18 19 17 18 15 15 9 7 11 13 38 61 60 61 60 59 60 60 61 61 62 62 62 63
48 48 49 48 49 49 49 48 48 48 48 48 48 47 47 47 48 47 46 45 46 47 46 46 45 42 40 34 34 34 35 35 36 36 36 37 35 34 34 33 34 34 34 33 32 32 32 34 32 28 27 20 15 18 15 14 13 12 11 11 10 10 9 12 15 16 16 15 15 15 12 11 13 13 33 61 61 60 58 58 59 60 61 60 61 62 62 63
48 48 48 48 48 48 48 48 48 48 48 48 48 47 47 48 48 48 47 45 45 45 46 45 44 40 36 33 35 34 44 39 38 37 38 36 35 31 30 31 31 34 34 35 34 34 33 33 30 27 24 26 23 17 14 13 13 13 10 8 10 8 9 11 15 14 10 10 13 14 15 12 13 14 41 60 61 61 57 58 59 60 60 61 61 61 61 62
48 48 49 48 48 48 48 48 48 48 48 48 48 47 48 48 48 48 47 46 45 45 45 40 41 38 34 29 29 35 29 31 29 33 36 37 35 30 29 30 32 32 33 33 34 33 32 30 29 26 19 22 21 15 13 12 12 12 7 12 8 8 7 8 12 13 11 10 11 13 12 10 12 14 38 60 60 60 58 58 60 60 61 61 61 61 61 62
48 49 49 48 48 48 49 48 48 48 48 48 48 48 48 48 47 46 45 45 44 43 43 37 41 41 30 32 29 23 23 29 31 30 29 32 31 31 30 30 31 33 34 34 33 32 32 28 26 24 21 18 17 14 12 12 14 11 12 13 11 7 8 4 9 10 12 10 9 10 10 10 14 25 35 60 61 60 58 59 60 60 60 61 60 60 61 62
48 49 49 48 48 48 48 48 48 48 48 47 47 47 44 46 46 45 45 46 45 43 43 42 38 34 28 32 28 26 25 23 27 29 29 28 31 31 31 30 32 34 33 31 32 29 29 27 24 23 21 17 16 14 12 9 13 14 12 13 10 9 8 4 4 8 10 10 8 10 10 9 14 39 48 57 60 59 56 57 59 59 59 60 60 60 60 61
48 49 48 48 48 48 48 48 48 48 48 48 47 45 45 44 41 42 41 41 32 31 26 34 34 17 5 17 27 25 23 25 29 29 25 32 37 35 35 35 34 32 25 25 26 27 27 24 23 21 19 17 14 13 11 12 13 12 10 8 8 7 7 5 4 9 9 9 8 8 9 9 11 33 50 55 57 56 57 58 59 60 60 60 59 59 59 60
48 48 49 48 48 48 48 47 48 48 48 46 43 41 39 35 34 30 40 38 32 28 24 25 33 25 25 25 23 25 29 30 27 26 25 31 27 26 24 33 31 32 23 24 26 26 25 22 21 19 18 17 13 13 12 11 12 11 9 8 7 5 8 8 9 8 8 8 9 9 10 8 9 26 46 53 57 57 56 56 58 58 58 59 59 60 60 60
45 47 48 48 47 48 47 47 47 47 47 44 41 36 30 31 30 26 33 33 33 33 32 31 30 30 28 27 27 28 29 29 29 27 28 31 27 23 21 31 31 26 22 24 25 26 24 22 21 19 16 15 13 13 16 13 12 9 9 7 7 6 3 8 8 8 8 11 8 12 10 9 11 19 38 50 57 55 55 55 56 57 58 58 59 59 60 60
45 45 46 47 47 48 48 48 47 48 46 43 40 35 35 34 36 38 37 30 32 34 33 33 33 32 32 31 31 32 32 30 30 29 29 29 25 16 22 27 28 18 25 24 23 24 24 22 21 18 16 15 13 12 13 13 11 10 9 8 7 6 8 8 9 9 7 7 8 9 9 9 13 34 44 47 53 55 56 56 56 57 57 58 59 59 60 60
45 45 45 46 47 47 48 47 47 46 43 41 39 38 37 38 40 42 41 37 33 35 33 33 32 33 33 34 34 34 31 29 28 27 25 26 27 19 28 25 26 23 23 23 22 23 23 22 21 18 16 14 12 12 13 13 17 13 11 10 7 8 5 5 8 9 7 10 8 14 8 10 30 45 46 51 52 55 56 57 58 58 57 58 58 59 59 59
46 46 46 45 46 47 47 46 47 43 41 41 40 39 39 41 42 40 40 32 27 29 32 33 33 33 32 32 32 32 30 29 29 25 27 27 25 25 27 26 25 24 22 22 22 21 19 20 20 17 15 13 12 11 12 15 12 15 10 10 8 8 7 7 6 12 16 12 14 12 13 13 20 33 42 49 54 54 54 55 56 57 58 59 60 59 59 58
45 45 44 46 47 48 46 46 43 41 42 42 40 41 42 42 42 42 38 30 29 30 33 32 34 33 33 33 32 30 30 30 29 27 27 25 24 26 25 29 24 22 22 23 22 20 19 20 18 16 14 13 12 10 10 13 13 13 13 9 8 8 8 8 9 8 9 10 8 7 8 9 25 33 31 48 50 52 54 55 55 55 57 57 57 57 58 59
45 45 45 47 48 46 45 42 41 40 42 40 40 41 45 45 45 45 36 27 20 21 28 23 32 27 32 29 30 29 29 24 27 29 28 26 29 27 27 26 25 20 23 24 22 23 19 22 19 16 14 14 12 10 10 12 13 15 11 12 10 8 8 7 7 7 8 7 9 12 7 10 21 23 32 47 48 50 51 52 53 55 56 56 57 57 58 58
46 47 47 47 46 45 42 38 42 43 40 39 41 45 46 47 48 43 28 20 17 22 22 25 28 26 29 28 28 28 15 17 27 28 28 29 26 28 26 24 26 25 25 25 23 21 21 20 19 17 15 13 12 11 13 11 13 11 14 12 10 9 8 7 7 8 10 19 13 12 7 8 9 17 37 45 48 48 50 51 52 54 55 56 56 58 58 58
47 47 47 46 45 44 44 44 42 40 39 40 45 44 46 47 45 42 28 8 8 31 27 31 29 28 27 27 28 22 14 23 18 24 28 28 28 27 25 25 23 22 23 22 19 21 22 20 18 18 16 13 12 11 14 12 11 11 13 11 10 9 9 7 6 9 15 10 8 10 22 9 9 21 47 47 44 46 47 49 50 52 53 55 56 57 58 58
47 46 45 45 45 45 44 45 43 41 43 43 44 44 46 46 42 29 16 9 28 27 38 29 34 33 35 29 27 26 24 24 21 24 28 29 28 26 23 24 26 23 23 21 19 19 21 21 19 19 17 14 14 14 14 12 10 12 12 11 12 10 9 8 8 7 13 13 11 8 12 6 6 20 39 47 42 40 44 46 48 51 52 54 55 56 57 58
46 45 45 45 44 44 45 47 44 44 44 44 44 45 45 42 35 20 10 8 27 18 33 32 31 29 30 27 26 26 25 24 22 25 28 26 27 28 26 26 25 23 21 22 21 17 20 25 23 19 18 17 15 14 14 12 11 11 11 10 9 10 12 16 15 12 13 10 11 8 13 7 4 22 34 43 40 42 43 45 48 50 52 53 55 56 57 57
44 44 45 46 44 43 44 41 43 45 44 43 43 43 41 36 23 13 9 11 20 23 35 33 29 33 31 27 26 26 25 25 25 24 24 25 25 25 24 23 24 23 22 21 20 20 18 21 20 19 21 18 14 13 14 13 11 10 9 10 9 12 14 14 14 16 10 8 9 10 9 9 7 14 26 40 43 41 39 39 43 46 49 52 54 56 56 57
46 45 46 45 45 46 42 40 42 45 44 44 42 39 33 18 23 13 13 24 16 24 28 27 31 29 28 31 29 28 25 26 26 24 20 21 22 22 22 22 23 20 19 20 18 20 18 18 19 19 24 18 13 12 12 12 10 9 9 9 9 9 15 8 11 9 8 8 11 10 10 9 9 15 20 31 37 41 45 39 39 44 47 51 53 55 56 57
45 46 46 45 45 44 44 44 45 45 44 43 39 35 23 15 12 16 17 20 17 27 25 31 28 29 30 29 28 28 29 24 24 24 20 20 22 22 22 22 23 21 17 20 18 20 18 16 15 18 20 21 16 12 11 10 9 8 7 9 8 6 6 9 6 12 12 9 12 10 14 8 17 14 17 15 20 33 44 48 46 42 49 53 54 56 56 58
46 45 44 44 44 44 46 47 45 44 43 41 35 27 21 15 14 25 18 21 23 33 32 30 30 30 28 27 27 27 25 27 23 21 18 19 21 22 21 21 21 21 20 21 16 18 15 15 15 16 18 20 18 14 12 11 10 7 7 6 10 9 4 8 4 7 9 8 11 12 9 10 8 8 23 23 24 43 33 34 45 50 50 53 54 55 56 58
46 45 44 44 46 46 46 46 46 45 42 38 32 24 17 16 19 19 19 22 26 30 29 30 29 27 26 27 29 28 26 22 23 18 17 19 20 20 21 21 22 22 22 19 21 21 14 15 16 16 17 19 18 17 12 10 8 8 8 8 10 9 17 3 13 9 9 10 12 14 12 16 11 25 29 35 43 48 49 47 46 50 52 54 54 56 56 57
44 43 44 45 46 48 47 47 46 46 42 36 27 21 18 20 20 24 24 30 31 28 27 28 28 27 25 21 29 26 29 23 20 19 17 18 19 20 21 21 21 22 22 18 21 17 15 14 15 16 15 19 18 16 13 11 11 10 7 7 6 15 15 19 20 25 24 12 7 17 15 13 19 16 31 46 47 48 51 49 49 52 53 55 55 56 56 56
41 42 43 45 46 49 48 48 47 46 42 34 25 21 23 24 23 27 30 30 30 31 29 24 25 24 22 21 24 26 25 26 23 20 18 19 19 20 21 22 23 23 22 20 20 18 16 16 15 15 13 16 18 17 14 12 14 8 8 8 17 16 17 19 7 15 10 7 12 17 9 8 8 9 40 45 43 44 51 51 51 54 54 54 56 57 56 56
41 41 43 44 48 49 48 48 46 43 38 31 25 27 26 25 29 27 32 33 32 31 28 27 26 30 24 22 21 24 25 21 22 21 17 18 20 21 21 21 23 23 23 23 20 20 18 12 13 14 14 15 16 18 14 14 11 9 7 12 4 10 9 16 18 11 9 8 7 15 16 14 7 11 26 32 39 43 49 52 52 53 54 54 56 56 56 56
41 41 40 45 49 48 48 46 43 40 34 27 25 24 29 28 31 31 31 31 30 30 28 28 25 29 28 24 25 25 24 18 21 21 18 18 20 22 21 21 21 23 23 23 22 23 24 15 13 14 13 14 15 17 16 14 11 12 11 9 14 14 15 12 13 19 11 8 15 10 14 9 13 12 18 18 39 44 49 51 52 52 53 55 55 56 55 56
40 39 39 48 48 48 47 46 42 37 31 25 25 26 31 30 32 34 34 33 31 31 30 29 29 27 29 28 28 24 24 19 20 21 21 18 18 21 21 22 21 21 22 23 20 24 23 28 12 13 13 13 14 17 16 14 13 10 10 10 12 19 14 12 21 11 9 13 10 9 11 14 21 27 24 21 28 44 50 51 53 53 54 55 56 56 56 56
40 37 38 48 48 48 48 43 35 31 28 30 32 30 31 29 34 34 33 34 34 35 33 31 31 28 29 29 25 25 25 19 20 21 20 17 19 19 20 21 21 20 21 22 21 24 21 20 17 13 11 12 14 15 15 14 13 12 12 11 8 12 10 6 9 12 13 15 14 11 9 20 21 30 27 28 41 44 49 52 53 54 54 54 55 56 56 56
38 33 37 48 48 47 42 33 32 34 31 29 28 32 30 35 34 35 35 36 35 35 37 34 33 31 30 29 29 24 29 18 19 21 20 18 18 19 19 20 21 19 20 22 21 23 26 27 21 15 13 12 11 13 14 13 13 11 11 11 9 21 16 6 7 12 11 11 15 18 14 16 33 35 37 38 42 44 48 51 52 53 54 54 56 56 57 57
35 35 42 48 48 45 39 32 34 32 31 34 36 34 36 35 34 35 33 34 33 35 35 32 32 31 32 30 29 26 28 23 19 19 21 22 19 18 20 20 20 18 20 21 18 20 31 19 17 11 11 10 10 12 14 12 11 9 9 10 9 12 11 11 12 21 9 17 12 13 13 15 31 40 44 45 45 47 51 52 53 53 54 55 55 56 56 57
36 37 40 47 48 46 36 28 29 30 32 33 33 32 35 34 34 33 32 33 33 34 33 33 33 33 31 31 29 29 30 24 24 22 20 21 20 22 19 19 19 18 19 22 20 32 22 23 18 12 11 10 11 11 12 10 10 12 12 14 9 12 14 26 24 26 12 16 10 10 9 11 31 39 47 47 47 49 51 53 53 54 54 54 54 56 56 57
37 39 39 42 47 44 33 34 31 30 30 30 30 30 30 33 35 35 34 33 34 33 33 33 34 34 30 30 29 31 32 29 26 25 28 24 22 28 19 19 19 20 18 23 27 26 23 28 21 13 12 9 10 11 12 12 11 14 13 10 9 9 20 20 12 16 8 22 14 10 9 21 30 37 47 50 51 51 52 53 53 54 54 54 55 56 57 57
35 29 34 38 43 41 39 39 34 31 30 30 29 30 32 31 34 37 36 34 34 34 34 34 33 34 32 31 30 30 30 32 29 29 26 26 28 25 19 18 19 19 25 30 32 27 28 31 24 24 14 12 13 12 13 14 13 11 10 10 9 10 16 27 27 15 7 22 17 15 17 20 23 29 33 49 51 51 52 53 53 53 54 55 55 56 57 57
38 30 31 30 34 38 34 36 33 33 30 33 28 31 31 31 33 34 36 33 34 34 33 33 33 32 32 32 31 30 31 31 32 31 29 29 31 30 31 18 18 22 29 27 33 30 29 22 26 29 22 15 16 17 13 12 12 11 11 11 9 11 21 26 19 15 30 20 13 25 35 23 19 26 33 41 49 51 52 52 53 54 55 55 55 55 55 57
31 34 35 36 31 29 30 30 32 32 32 33 30 32 31 32 32 32 35 35 36 35 33 32 34 33 32 31 31 29 30 30 32 30 33 34 32 35 31 26 18 26 28 21 28 29 25 22 26 26 25 22 19 19 15 10 11 11 10 14 14 13 22 24 25 30 29 15 11 31 34 27 22 24 36 42 46 51 52 53 53 54 55 55 55 55 55 56
34 35 34 36 30 32 32 32 33 32 32 33 32 33 32 32 32 34 35 34 34 35 34 30 31 32 33 34 32 27 30 27 28 32 36 38 35 36 24 26 24 21 25 28 30 36 24 20 28 26 25 27 22 21 21 9 12 10 11 14 13 18 23 24 24 30 27 23 30 34 37 33 30 33 41 45 47 50 52 54 53 54 54 54 55 55 55 55
33 32 32 35 34 32 32 33 32 32 31 34 31 32 33 33 33 34 36 35 32 35 35 30 32 33 34 34 32 27 29 33 33 31 35 33 36 37 32 32 23 22 23 27 25 33 22 23 33 31 22 25 31 28 22 11 12 16 13 12 13 17 18 19 25 31 31 29 35 35 34 33 36 41 41 48 49 52 53 52 53 54 54 54 54 55 55 55
37 38 37 33 30 30 32 33 32 31 31 32 31 32 33 34 34 35 36 37 35 33 33 31 34 36 37 34 33 31 32 33 35 36 36 35 33 37 36 36 27 25 23 29 26 32 25 23 31 28 21 24 27 26 20 17 16 16 18 18 19 21 22 24 20 32 24 22 35 34 28 23 34 46 49 50 51 52 52 52 53 54 54 54 54 54 55 55
37 38 38 36 29 33 30 31 31 33 29 32 33 33 33 34 35 36 34 37 34 37 35 34 37 36 37 38 35 36 37 36 34 37 38 38 38 38 37 37 38 28 27 33 39 27 28 26 21 24 21 22 28 25 22 20 19 16 21 21 23 23 22 28 26 33 30 29 31 21 15 30 41 50 50 51 51 53 53 52 53 53 54 54 54 54 55 55